Starlink 32488

operational
NORAD ID: 62125 Int'l Des: 2024-222 Owner: SPXS Country: US Constellation: starlink
LEOCIRCULAR

Starlink 32488について

説明を読み込み中...

リアルタイム位置

3D地球を読み込み中...

次回通過

高度履歴

Altitude vs Time

uPlot chart will show altitude changes over time

軌道要素

1 62125U 24222M 25351.09806387 .00009597 00000-0 35763-3 0 9992
2 62125 43.0023 242.9626 0001973 264.9056 95.1571 15.27597454 60017
Epoch: Dec 17, 2025 • Age: 11 hours

現在のステータス

高度 485.1 km
速度 7.63 km/s
衛星直下点 32.84°N, 6.11°W
打ち上げ日 Nov 27, 2024
運用期間 1 years
タイプ internet

技術仕様

分類 Payload
質量 730.00 kg
乾燥質量 700.00 kg
総質量 730.00 kg
長さ 0.30 m
直径 4.10 m
スパン 29.00 m
形状 Box + pan
製造者 SPXS
バスタイプ Starlink V2M
フェーズステータス In Orbit
所有者/国 SPXS/US

大規模コンステレーション

Loading constellations...